リニア彗星

C/2017 B3 ( LINEAR )

English version
Home page
Updated on September 18, 2021

---------------------------------------------------------------------

・ プロフィール

発見日 2017年1月26日
発見光度 19.2等
発見者 LINEAR survey (Space Surveillance Telescope, Atom Peak, White Sands Missile Range, NM, USA)

・ 写真集

・ 軌道要素

Epoch 2019 Feb. 6.0 TT = JDT 2458520.5
T 2019 Feb. 2.50419 TT                                  Rudenko
q   3.9211549            (2000.0)            P               Q
z  -0.0005373      Peri.  284.74972     +0.27591503     +0.96068828
 +/-0.0000002      Node     2.17722     -0.19811227     +0.08820088
e   1.0021069      Incl.   54.17878     -0.94054369     +0.26324632
From 1489 observations 2016 Mar. 4-2021 Aug. 20, mean residual 0".5.

・ 星図

・ 光度変化

        m1 = 5.0 + 5 logΔ + 10.0 log r(t - 200)  [   ,200]  (              〜2019年 8月21日)
        m1 = 3.5 + 5 logΔ + 12.5 log r(t - 200)  [200,   ]  (2019年 8月21日〜              )

---------------------------------------------------------------------

軌道要素はM.P.E.C. 2021-R75に掲載されたものです。
星図はステラナビゲータ Ver.10 (アストロアーツ) で作成したものです。
光度グラフはComet for Windowsで作成したものです。

---------------------------------------------------------------------

Copyright(C) Seiichi Yoshida (comet@aerith.net). All rights reserved.